User: anonymous   Login
Location: Unspecified
(0.0000°N, 0.0000°E)
Time: 16:26:02
(UTC+00:00)
Language:

CICERO 10 - Orbit

View from above orbital plane
View from above orbital plane
View from above satellite
View from above satellite

Ground track
Ground track

The orbit data is extracted from the following two-line orbital elements,

1 43690U 18088A   22280.33730883  .00018261  00000-0  69663-3 0  9997
2 43690  85.0345 241.9763 0016218  93.4101 266.8999 15.26427706216791
Epoch (UTC): 07 October 2022 08:05:43
Eccentricity: 0.0016218
inclination: 85.0345°
perigee height: 475 km
apogee height: 497 km
right ascension of ascending node: 241.9763°
argument of perigee: 93.4101°
revolutions per day: 15.26427706
mean anomaly at epoch: 266.8999°
orbit number at epoch: 21679

The dashed part of the orbit path shows where the satellite is in the earth's shadow,  

DLR